Regional Weather Roundup
Issued by NWS

Home | Current Version | Previous Version | Text Only | Print | Product List | Glossary Off
Versions: 1 2 3 4 5 6 7 8 9 10 11 12 13 14 15 16 17 18 19 20 21 22 23 24 25 26 27 28 29 30 31 32 33 34 35 36 37 38 39 40 41 42 43 44 45 46 47 48 49 50

000
ASUS45 KBOI 250410
RWRID
WEATHER ROUNDUP FOR IDAHO
NATIONAL WEATHER SERVICE BOISE ID
900 PM MST SAT JAN 24 2015

NOTE: "FAIR" INDICATES FEW OR NO CLOUDS BELOW 12000 FEET
WITH NO SIGNIFICANT WEATHER AND/OR OBSTRUCTIONS TO VISIBILITY

IDZ012-014-250500-
SOUTHWEST IDAHO


CITY           SKY/WX    TMP DP  RH WIND       PRES   REMARKS
BOISE          CLEAR     35  31  85 CALM      30.46S
CALDWELL       CLEAR     34  25  69 CALM      30.49S
MOUNTAIN HOME  CLEAR     33  30  90 NE3       30.46S
$$

IDZ016-017-250500-
SOUTHCENTRAL IDAHO


CITY           SKY/WX    TMP DP  RH WIND       PRES   REMARKS
BURLEY         CLOUDY    35  31  85 CALM      30.42S
JEROME         CLEAR     27  25  92 NE8       30.44R WCI  19
TWIN FALLS     CLEAR     30  27  88 S3        30.44R
$$

IDZ019>023-250500-
SOUTHEAST IDAHO


CITY           SKY/WX    TMP DP  RH WIND       PRES   REMARKS
IDAHO FALLS    CLOUDY    26  23  88 N5        30.45F WCI  20
POCATELLO      CLOUDY    31  30  96 E3        30.46R
REXBURG        CLOUDY    27  27 100 CALM      30.44S FOG
$$

IDZ006-010-011-018-031-032-250500-
CENTRAL IDAHO MOUNTAINS


CITY           SKY/WX    TMP DP  RH WIND       PRES   REMARKS
MCCALL         CLOUDY    34  32  92 CALM      30.40R
HAILEY         CLEAR     21  19  93 NW6       30.42F WCI  14
STANLEY          N/A     32  29  88 CALM      30.42R
SALMON         CLOUDY    30  27  86 CALM      30.39F
CHALLIS        CLOUDY    33  30  88 CALM      30.37S
$$

IDZ002-004-006-007-026-250500-
NORTHERN IDAHO


CITY           SKY/WX    TMP DP  RH WIND       PRES   REMARKS
LEWISTON       CLOUDY    48  43  82 CALM      30.28S
LOWELL           N/A     37  35  92 N3        30.39S
COEUR D`ALENE  CLOUDY    37  37 100 N6        30.24S VSB 1/2 WCI  33
MULLAN PASS    LGT RAIN  36  36 100 SW8       30.25F VSB 1/2 WCI  30
$$



USA.gov is the U.S. government's official web portal to all federal, state and local government web resources and services.